This demonstration page uses our WeatherBlox Daily Observations layout. Learn more.

36.17497, -115.13722

Hourly Observations for July 20, 2018

Temp ( °F °C ) Dew Point ( °F °C ) Humidity (%) Winds ( mph kmh ) Pressure ( in mb ) Visibility ( mi km ) Precip ( " mm )
12:53 am 00:53 Clear 84 28.9 61 16.1 46 46 W 8 13 29.94 1014 10 16.09344 0 0
1:53 am 01:53 Clear 85 29.4 62 16.7 46 46 S 7 11 29.91 1013 10 16.09344 0 0
2:53 am 02:53 Clear 85 29.4 61 16.1 45 45 Calm 29.91 1013 10 16.09344 0 0
3:53 am 03:53 Clear 80 26.7 63 17.2 56 56 Calm 29.88 1012 10 16.09344 0 0
4:53 am 04:53 Clear 82 27.8 63 17.2 53 53 Calm 29.88 1012 10 16.09344 0 0
5:53 am 05:53 Sunny 81 27.2 64 17.8 57 57 E 8 13 29.88 1012 10 16.09344 0 0
6:53 am 06:53 Sunny 82 27.8 63 17.2 53 53 E 7 11 29.88 1012 10 16.09344 0 0
7:53 am 07:53 Sunny 83 28.3 64 17.8 53 53 SSE 5 7 29.91 1013 10 16.09344 0 0
8:53 am 08:53 Sunny 85 29.4 63 17.2 48 48 S 5 7 29.94 1014 10 16.09344 0 0
9:53 am 09:53 Sunny 88 31.1 61 16.1 40 40 N 3 6 29.94 1014 10 16.09344 0 0
10:53 am 10:53 Sunny 93 33.9 61 16.1 34 34 N 6 9 29.94 1014 10 16.09344 0 0
11:53 am 11:53 Sunny 95 35 59 15 30 30 N 6 9 29.91 1013 10 16.09344 0 0
12:53 pm 12:53 Sunny 97 36.1 59 15 28 28 ESE 7 11 29.91 1013 10 16.09344 0 0
1:53 pm 13:53 Sunny 98 36.7 58 14.4 26 26 SSE 8 13 29.85 1011 10 16.09344 0 0
2:53 pm 14:53 Sunny 100 37.8 59 15 26 26 SSE 7 11 29.83 1010 10 16.09344 0 0
3:53 pm 15:53 Sunny 99 37.2 58 14.4 26 26 S 8 13 29.83 1010 10 16.09344 0 0
4:53 pm 16:53 Sunny 100 37.8 57 13.9 24 24 S 9 15 29.8 1009 10 16.09344 0 0
5:53 pm 17:53 Sunny 101 38.3 57 13.9 23 23 SE 5 7 29.8 1009 10 16.09344 0 0
6:53 pm 18:53 Sunny 101 38.3 56 13.3 22 22 ESE 3 6 29.77 1008 10 16.09344 0 0
7:53 pm 19:53 Sunny 94 34.4 61 16.1 33 33 S 10 17 29.8 1009 10 16.09344 0 0
8:53 pm 20:53 Clear 98 36.7 58 14.4 26 26 W 6 9 29.83 1010 10 16.09344 0 0
9:53 pm 21:53 Clear 97 36.1 59 15 28 28 W 3 6 29.83 1010 10 16.09344 0 0
10:53 pm 22:53 Partly Cloudy 97 36.1 59 15 28 28 Calm 29.83 1010 10 16.09344 0 0
11:53 pm 23:53 Clear 96 35.6 59 15 29 29 SSW 7 11 29.83 1010 10 16.09344 0 0

Powered by AerisWeather